TimeEDT,TemperatureF,Dew PointF,Humidity,Sea Level PressureIn,VisibilityMPH,Wind Direction,Wind SpeedMPH,Gust SpeedMPH,PrecipitationIn,Events,Conditions,WindDirDegrees,DateUTC
12:54 AM,42.1,37.0,82,29.87,-9999.0,North,-9999.0,-,N/A,,Unknown,0,2013-10-19 04:54:00
1:54 AM,42.1,37.0,82,29.86,-9999.0,North,-9999.0,-,N/A,,Unknown,0,2013-10-19 05:54:00
2:54 AM,43.0,37.0,80,29.87,-9999.0,North,-9999.0,-,N/A,,Unknown,0,2013-10-19 06:54:00
3:54 AM,42.1,37.0,82,29.88,-9999.0,North,-9999.0,-,N/A,,Unknown,0,2013-10-19 07:54:00
4:54 AM,39.0,36.0,89,29.88,-9999.0,North,-9999.0,-,N/A,,Unknown,0,2013-10-19 08:54:00
5:54 AM,37.9,35.1,89,29.91,-9999.0,North,-9999.0,-,N/A,,Unknown,0,2013-10-19 09:54:00
6:54 AM,36.0,34.0,93,29.92,-9999.0,North,-9999.0,-,N/A,,Unknown,0,2013-10-19 10:54:00
7:54 AM,36.0,34.0,93,29.92,-9999.0,North,-9999.0,-,N/A,,Unknown,0,2013-10-19 11:54:00
8:54 AM,39.9,36.0,86,29.92,-9999.0,North,-9999.0,-,N/A,,Unknown,0,2013-10-19 12:54:00
9:54 AM,46.0,39.0,76,29.91,-9999.0,North,-9999.0,-,N/A,,Unknown,0,2013-10-19 13:54:00
10:54 AM,52.0,39.9,63,29.89,-9999.0,North,-9999.0,-,N/A,,Unknown,0,2013-10-19 14:54:00
11:54 AM,55.0,41.0,59,29.88,-9999.0,North,-9999.0,-,N/A,,Unknown,0,2013-10-19 15:54:00
12:54 PM,59.0,41.0,51,29.85,-9999.0,North,-9999.0,-,N/A,,Unknown,0,2013-10-19 16:54:00
1:54 PM,61.0,39.0,44,29.82,-9999.0,North,-9999.0,-,N/A,,Unknown,0,2013-10-19 17:54:00
2:54 PM,61.0,39.9,46,29.81,-9999.0,North,-9999.0,-,N/A,,Unknown,0,2013-10-19 18:54:00
3:54 PM,60.1,41.0,49,29.79,-9999.0,North,-9999.0,-,N/A,,Unknown,0,2013-10-19 19:54:00
4:54 PM,59.0,42.1,53,29.77,-9999.0,North,-9999.0,-,N/A,,Unknown,0,2013-10-19 20:54:00
5:54 PM,57.9,43.0,58,29.77,-9999.0,North,-9999.0,-,N/A,,Unknown,0,2013-10-19 21:54:00
6:54 PM,55.0,44.1,67,29.76,-9999.0,North,-9999.0,-,N/A,,Unknown,0,2013-10-19 22:54:00
7:54 PM,54.0,45.0,72,29.73,-9999.0,North,-9999.0,-,N/A,,Unknown,0,2013-10-19 23:54:00
8:54 PM,53.1,45.0,74,29.72,-9999.0,North,-9999.0,-,N/A,,Unknown,0,2013-10-20 00:54:00
9:54 PM,52.0,46.0,80,29.70,-9999.0,North,-9999.0,-,N/A,,Unknown,0,2013-10-20 01:54:00
10:54 PM,55.0,39.0,55,29.69,-9999.0,North,-9999.0,-,N/A,,Unknown,0,2013-10-20 02:54:00
11:54 PM,51.1,43.0,74,29.67,-9999.0,North,-9999.0,-,0.02,,Unknown,0,2013-10-20 03:54:00